Theta_e
352 353 355 359 359 359 355 352 350 352 350 349 348 346 336 341 347 347 346 342 345 346 344 344 344 345 345 345 342 342 346 345 347 346 346 346 346 346 346 346 346 347 348
352 353 354 354 355 356 355 353 351 351 350 351 348 346 337 344 347 343 346 344 346 347 345 344 344 345 345 345 344 345 344 347 345 347 346 346 347 346 346 347 346 341 344
348 349 351 351 353 352 353 354 353 351 351 349 350 348 347 348 346 343 345 341 341 342 343 345 343 344 345 345 344 343 344 348 346 348 346 347 346 343 344 344 342 341 343
336 342 350 350 348 347 349 350 352 349 345 346 346 347 349 348 345 346 346 345 344 342 343 344 345 345 344 345 345 344 345 345 348 346 346 347 345 345 342 339 344 347 346
336 335 339 337 340 345 345 346 345 344 343 342 343 345 346 344 343 345 343 339 337 341 339 345 345 346 345 345 345 344 344 345 345 347 346 346 345 344 346 346 347 347 347
338 336 336 337 336 337 340 342 343 340 338 339 340 342 340 336 337 341 343 341 339 337 336 342 344 344 345 343 344 344 342 345 344 344 347 346 344 342 345 346 347 349 347
338 336 332 330 329 329 329 330 332 335 337 336 334 332 335 335 338 339 341 341 341 335 338 340 340 340 342 343 343 342 344 346 345 345 345 346 345 345 347 349 348 346 347
330 330 330 330 329 329 329 329 329 329 330 330 329 329 329 331 332 328 335 336 338 332 328 330 334 335 340 340 343 346 343 343 345 345 345 346 346 347 348 346 346 342 339
329 329 330 330 330 330 330 330 330 330 330 329 328 329 330 329 329 329 331 337 333 330 329 332 330 331 334 335 338 342 345 346 346 343 346 346 346 345 347 345 343 339 339
330 330 331 332 333 332 332 331 330 331 331 330 329 329 330 330 329 328 327 334 344 336 333 332 329 332 333 333 334 336 343 342 346 342 345 342 344 343 345 343 344 343 342
330 331 332 332 333 333 335 334 333 332 331 330 328 328 328 332 332 331 329 340 340 339 339 327 333 330 330 331 335 336 342 341 341 346 344 343 343 343 344 343 341 342 344
331 332 331 330 329 329 329 329 331 332 331 330 330 328 328 327 331 331 331 331 335 335 330 329 326 335 334 334 334 334 342 342 341 341 342 341 345 344 342 343 346 346 346
327 329 329 328 327 328 329 330 329 328 331 332 329 328 328 328 328 327 328 336 339 341 339 337 338 336 340 340 337 337 337 341 341 341 340 341 340 340 345 344 345 344 343
327 327 326 326 326 326 328 327 328 329 330 329 328 328 329 329 328 328 331 334 334 334 332 333 338 342 341 342 341 341 341 342 343 343 340 340 341 341 340 341 342 341 341
329 328 328 327 327 327 328 328 328 329 330 330 328 328 329 329 328 331 332 334 335 332 330 330 336 337 339 341 346 343 340 342 343 343 342 343 342 343 341 341 341 341 342
325 326 328 329 328 328 328 328 328 328 329 329 329 329 329 330 329 328 331 333 332 331 331 328 329 339 339 341 342 344 343 342 343 344 345 344 342 342 343 343 343 345 343
323 325 326 328 328 328 327 328 327 327 328 329 329 329 330 331 329 329 329 329 329 329 330 329 328 330 337 340 337 340 343 345 347 345 344 344 344 343 343 345 345 345 344
318 320 322 326 328 329 327 326 328 327 328 328 328 328 328 326 328 330 329 329 329 329 329 329 329 328 329 333 337 337 340 340 341 345 345 344 344 344 343 342 343 344 344
316 317 317 321 326 328 326 327 327 327 326 326 325 326 327 328 328 330 330 329 329 329 329 330 329 328 327 328 329 333 334 331 331 339 344 345 344 344 343 342 342 343 342
315 315 315 317 324 326 328 325 323 324 325 326 326 327 327 327 328 328 328 328 327 328 329 330 330 329 329 327 325 326 330 330 328 332 338 342 342 340 339 341 341 339 339
315 316 316 322 326 327 327 328 327 327 328 328 328 328 328 328 327 328 330 328 329 327 328 328 329 329 329 330 329 325 326 327 326 325 325 334 340 338 339 340 339 339 340
319 319 321 324 326 327 326 326 327 328 328 328 327 326 327 326 327 328 329 329 329 328 328 327 328 329 330 332 331 331 332 328 326 324 326 333 338 340 341 342 341 340 339
321 321 322 323 323 324 324 325 326 327 328 328 328 329 328 328 329 329 329 329 330 330 329 327 326 328 329 330 331 332 331 329 328 330 332 335 339 342 341 340 340 339 338
318 319 320 321 322 323 324 325 326 327 328 328 328 329 328 329 329 330 329 329 330 330 331 330 328 327 328 330 330 332 332 334 332 334 338 339 340 341 340 339 339 340 339
316 316 316 316 315 316 318 320 322 324 324 326 327 328 330 329 330 330 330 330 330 330 331 330 329 329 331 331 331 332 333 333 332 333 335 337 337 336 337 339 338 338 339
315 315 315 316 316 316 315 315 315 317 319 321 322 323 325 327 328 328 329 330 330 331 331 331 331 331 331 331 331 330 333 334 333 336 335 334 336 336 336 338 337 337 338
Wind_Speed
8 12 17 18 17 19 17 17 21 20 20 21 20 19 4 17 18 16 19 15 23 23 23 26 27 29 29 29 27 28 29 24 25 23 19 17 20 20 18 19 18 17 17
9 13 13 13 17 21 21 19 17 17 15 18 20 19 18 19 16 18 22 18 23 26 23 25 28 28 31 32 29 28 33 27 27 26 22 21 22 19 20 21 20 22 21
10 10 11 15 16 18 21 22 18 17 17 17 22 24 23 15 15 19 20 22 20 19 20 21 23 29 33 33 35 31 33 29 27 26 25 23 19 14 19 21 20 18 18
13 10 10 11 12 10 13 16 16 14 13 12 12 15 16 17 19 18 19 20 18 15 15 20 21 25 29 30 31 31 30 34 29 27 27 25 20 15 14 20 17 16 15
10 10 10 12 14 12 11 11 12 11 10 11 12 11 13 15 16 17 17 19 19 18 17 15 15 15 21 27 28 33 31 32 35 29 29 30 27 20 19 18 21 15 16
10 7 8 11 13 15 12 11 11 11 8 8 8 6 10 8 8 13 19 22 18 17 21 18 15 15 18 22 26 31 29 31 33 33 30 29 26 26 20 19 18 20 20
15 16 18 20 21 19 18 18 17 15 15 12 11 10 11 11 10 12 16 21 20 16 16 19 10 13 19 21 22 27 30 30 34 32 32 30 29 24 18 16 13 15 17
17 17 17 18 21 24 25 25 24 23 21 21 22 20 19 18 14 16 19 18 20 16 20 25 18 13 17 20 26 33 31 29 29 32 30 29 27 21 22 20 18 18 19
22 22 21 22 24 24 25 26 25 26 25 24 25 26 26 27 23 21 21 22 21 19 16 17 17 6 6 15 22 18 22 21 27 29 24 30 26 25 24 22 23 20 23
24 25 25 23 23 26 27 28 27 27 27 27 28 28 29 32 29 28 24 27 27 25 24 21 16 10 7 12 16 19 29 26 24 27 24 29 27 25 24 22 24 26 27
21 21 21 23 25 27 28 30 31 31 31 31 30 29 29 28 29 28 29 29 31 31 29 27 27 18 16 16 11 22 26 25 25 26 29 27 26 27 29 27 28 30 28
25 26 29 31 31 31 31 32 33 34 35 34 32 31 32 30 29 28 27 32 38 37 36 33 32 29 24 15 20 24 25 24 25 25 29 28 26 27 26 24 25 26 27
29 33 35 35 35 36 34 33 34 33 35 34 34 33 31 29 29 28 29 29 28 30 32 33 34 35 30 29 36 27 23 24 27 29 27 31 30 30 28 28 29 28 27
29 32 32 32 34 33 33 33 34 35 33 34 34 32 26 23 23 23 23 25 26 29 30 34 33 36 36 35 28 30 23 29 29 32 32 32 32 30 28 29 29 28 31
28 31 32 32 31 31 28 28 30 31 29 31 31 27 26 23 23 20 22 18 18 18 22 23 26 32 35 34 32 28 31 31 31 32 32 34 35 34 32 28 27 28 30
33 31 31 31 28 28 29 29 28 29 28 25 25 25 25 25 24 26 27 27 29 30 30 24 24 24 33 30 31 29 27 31 31 33 28 31 30 28 31 30 30 29 28
30 29 29 30 29 27 28 26 29 27 28 28 26 25 26 27 25 27 26 24 29 30 31 28 26 21 25 26 27 23 20 21 26 32 31 28 26 28 28 28 29 29 30
31 29 27 24 24 23 25 25 23 24 23 22 23 24 24 25 25 22 23 26 26 30 30 31 29 27 25 24 26 25 20 18 19 24 29 29 30 30 29 30 31 31 32
31 30 26 23 22 20 21 18 18 17 18 20 21 19 19 18 25 24 25 26 30 29 27 29 31 30 30 31 29 26 25 23 20 21 24 27 31 33 32 32 30 29 30
35 28 21 18 14 18 17 18 20 21 21 21 20 19 16 18 20 22 27 28 28 27 27 28 28 28 28 29 32 33 33 30 26 26 26 26 27 29 31 33 33 33 35
26 21 12 8 10 13 15 13 15 17 17 17 17 16 16 18 19 20 22 25 26 27 27 26 26 27 28 28 26 30 32 33 31 31 33 34 31 31 30 28 27 25 27
26 23 24 24 18 16 14 14 12 12 16 20 21 16 17 21 22 22 23 22 26 25 26 27 27 25 26 23 24 27 30 33 34 35 37 38 37 33 31 30 28 27 27
27 26 23 19 19 17 16 15 14 15 14 13 14 17 15 15 20 20 19 22 24 26 27 29 30 28 27 27 27 25 26 29 31 30 34 39 38 32 29 30 29 29 26
34 29 25 23 20 19 19 16 15 15 11 11 11 13 17 18 20 17 21 22 21 23 26 24 24 28 29 29 28 28 26 28 28 28 27 31 33 31 31 32 33 31 24
40 44 43 38 31 25 21 19 17 15 13 12 10 11 11 14 14 16 16 14 16 18 21 24 25 27 26 25 23 27 31 29 25 30 27 28 29 30 29 30 30 28 26
34 34 35 37 39 39 38 34 28 21 17 15 13 9 5 6 7 8 9 12 15 16 18 18 22 26 25 25 28 26 25 29 27 22 30 32 30 27 31 33 31 30 29
Wind_Direction
290 261 253 266 268 266 267 269 260 260 261 258 248 243 270 282 246 252 251 270 261 260 270 267 263 259 254 248 245 244 244 248 253 253 247 246 245 253 247 238 226 237 235
256 276 287 277 277 266 272 273 272 263 261 272 261 256 271 252 253 266 251 260 268 264 261 262 257 252 250 247 246 247 242 242 247 249 252 255 245 246 236 233 231 246 241
300 303 294 289 276 270 271 275 270 274 285 276 261 253 277 262 261 263 247 255 259 261 257 256 262 248 245 246 247 248 242 240 243 246 248 255 260 252 239 232 244 232 227
320 305 288 298 298 298 282 277 288 292 296 295 286 273 278 259 256 251 255 258 267 278 275 268 261 249 244 244 245 243 243 240 244 240 245 247 237 256 251 229 230 233 236
326 301 304 317 320 316 320 306 307 307 310 288 281 278 278 271 268 262 259 261 275 277 278 266 259 247 240 241 241 241 242 243 243 238 241 242 245 237 236 226 235 241 242
278 277 286 295 301 302 297 294 302 315 324 327 351 293 281 289 269 269 265 273 290 295 265 242 250 255 247 234 239 240 233 243 241 240 242 241 245 242 235 240 247 244 251
275 286 294 299 301 300 297 295 298 295 299 304 303 298 296 302 298 287 276 266 277 281 262 249 255 290 258 253 241 233 237 237 244 244 239 242 243 228 227 234 240 244 256
275 275 279 282 292 298 299 300 302 298 290 289 290 291 287 286 288 285 283 281 272 277 278 276 280 291 262 276 252 236 235 234 236 242 237 237 234 233 235 249 256 260 263
287 285 284 287 287 290 289 293 298 297 295 295 293 287 282 277 276 274 275 271 272 262 291 261 302 292 292 293 269 259 228 232 237 232 237 230 234 236 240 247 248 256 263
288 285 281 277 281 282 279 279 285 284 285 291 294 288 282 277 274 265 259 266 263 260 263 262 256 247 299 278 280 255 238 230 230 228 230 225 231 231 233 240 243 252 259
291 288 283 277 272 273 273 271 271 276 279 279 283 285 284 273 268 266 253 249 253 257 263 268 262 257 246 263 254 250 240 229 235 233 233 233 235 237 239 242 246 249 252
291 286 287 284 282 282 280 277 272 272 274 276 278 280 280 271 265 267 261 255 252 261 266 268 272 260 258 256 248 257 240 239 237 237 237 235 239 241 237 238 242 251 255
292 287 287 287 286 285 281 277 274 268 265 266 272 277 276 272 270 266 256 258 251 261 266 269 274 275 271 262 257 262 253 245 240 238 233 238 240 244 242 243 248 253 257
306 301 296 291 287 281 275 278 272 270 263 264 271 273 270 272 271 262 253 259 269 270 270 270 273 267 267 270 260 242 250 249 246 244 241 240 245 250 249 247 250 254 259
311 309 307 302 295 289 285 280 275 273 269 264 272 268 265 270 263 273 261 263 249 270 293 296 276 265 260 263 267 261 249 242 248 246 250 249 247 244 242 243 251 257 256
308 308 308 308 303 297 296 289 277 273 271 261 262 265 267 268 268 264 259 255 267 279 283 289 291 274 255 254 273 276 266 257 249 250 257 254 249 247 241 244 250 251 255
306 300 299 306 301 300 299 289 287 278 264 262 262 258 257 259 265 265 260 261 266 268 269 273 279 280 263 253 262 271 274 264 260 256 255 254 255 252 251 249 250 251 256
313 302 289 292 304 306 304 294 289 277 271 263 256 260 257 261 253 253 255 264 266 264 266 269 269 265 265 268 260 259 265 273 273 259 251 250 256 255 252 254 254 255 258
326 320 312 287 285 304 300 291 286 281 273 274 278 269 261 265 245 248 252 263 259 262 270 272 265 261 261 262 258 262 262 264 267 268 252 248 254 256 258 259 257 259 259
334 328 319 301 294 307 304 286 285 286 284 274 272 274 278 267 258 255 261 262 265 263 271 268 260 258 261 265 261 254 257 259 256 257 257 253 252 256 259 258 257 262 262
347 345 347 11 356 344 332 317 297 291 290 284 280 285 282 275 268 265 261 257 261 254 261 267 267 265 265 264 265 256 250 252 254 256 253 251 249 256 254 255 263 263 269
22 24 27 32 21 11 354 336 325 305 295 302 289 287 293 274 267 269 275 267 259 259 261 263 263 267 262 263 271 261 256 251 249 254 252 249 252 256 255 256 258 264 274
21 21 19 10 1 358 350 342 331 316 306 312 314 294 287 281 281 280 282 285 279 265 265 261 257 259 265 269 267 269 262 258 253 258 257 251 249 249 252 254 256 265 272
35 29 19 12 9 10 9 3 349 340 327 307 310 312 303 289 286 288 282 276 275 271 268 266 261 258 263 268 270 263 269 267 256 261 258 250 250 248 259 252 253 257 262
41 41 38 34 28 21 16 8 2 358 346 342 328 326 330 319 289 272 279 280 272 269 269 265 263 261 265 263 255 271 259 254 258 251 253 246 247 246 248 249 245 248 254
39 40 41 40 38 39 41 39 32 23 16 7 354 343 2 9 357 337 309 285 276 269 263 263 256 251 249 255 261 268 259 250 247 251 245 247 250 247 242 242 244 249 255